World > North America > United States > Alabama

Gainestown, Alabama Regional Weather

Lat: 31.45N, Lon: 87.69W
Wx Zone: ALZ053
Feedback

Gainestown, AL Regional Weather

Expires:202007121600;;735572
ASUS44 KBMX 121510
RWRAL 
             
ALABAMA REGIONAL WEATHER ROUNDUP
NATIONAL WEATHER SERVICE BIRMINGHAM AL
1000 AM CDT SUN JUL 12 2020

NOTE: "FAIR" INDICATES FEW OR NO CLOUDS BELOW 12,000 FEET
WITH NO SIGNIFICANT WEATHER AND/OR OBSTRUCTIONS TO VISIBILITY.

THE REMARK "TC" DENOTES TEMPERATURE IN DEGREES CELSIUS.


ALZ051>064-121600-
SOUTHWEST ALABAMA
  
CITY           SKY/WX    TMP DP  RH WIND       PRES   REMARKS
MOBILE         MOSUNNY   86  69  56 S3        29.93F HX  90           
BROOKLEY FIELD MOSUNNY   88  74  63 SE5       29.93F HX  96           
EVERGREEN      MOSUNNY   87  72  60 VRB3      29.92F HX  93           
$$


SKY/WX - Weather  TMP - Temperature  DP - Dew Point  RH - Relative Humidity
WIND - Wind Direction/Speed PRES - Barometric Pressure VSB - Visibility
WCI - Wind Chill Index E13G22 Wind - East Wind 13 mph/Gusts of 22 mph
Gainestown Weather Map
UTC Time: 7/12/2020, 15:44
Your Time: